Regional Weather Roundup
Issued by NWS Wakefield, VA

Home | Current Version | Previous Version | Graphics & Text | Print | Product List | Glossary On
Versions: 1 2 3 4 5 6 7 8 9 10 11 12 13 14 15 16 17 18 19 20 21 22 23 24 25 26 27 28
000
ASUS41 KAKQ 230215
RWRAKQ

REGIONAL WEATHER ROUNDUP
NATIONAL WEATHER SERVICE WAKEFIELD VA
1000 PM EDT SAT JUL 22 2017

Note: "fair" indicates few or no clouds below 12,000 feet with no
significant weather and/or obstructions to visibility. * = Denotes
station may not report precipitation (e.g., rain,snow,etc.),
thunder or fog.

VAZ042-051-052>054-056-230300-
NORTHERN VIRGINIA

CITY           SKY/WX    TMP DP  RH WIND       PRES   REMARKS
WASH NATIONAL  TSTM      76  74  93 N12       29.81R
DULLES         CLOUDY    74  71  91 CALM      29.82R THUNDER
FORT BELVOIR   NOT AVBL
QUANTICO       CLOUDY    79  75  87 SE8       29.80R THUNDER
FREDERICKSBRG*   N/A     74  74 100 MISG      29.80S
STAFFORD*      CLOUDY    74  74 100 CALM      29.85R
WARRENTON      CLOUDY    76  72  88 CALM      29.80S
CULPEPER*      CLOUDY    75  75  99 CALM      29.82S
MANASSAS*      MOCLDY    74  72  93 SW7       29.80F
LEESBURG*      CLOUDY    73  73 100 CALM      29.83S
WINCHESTER     LGT RAIN  70  70 100 CALM      29.83S
FRONT ROYAL*   CLOUDY    72  72 100 CALM      29.83R
LURAY*         RAIN      75  73  94 SW7       29.86R
$$

VAZ048-049-060>072-079>083-230300-
CENTRAL AND SOUTH CENTRAL VIRGINIA

CITY           SKY/WX    TMP DP  RH WIND       PRES   REMARKS
RICHMOND       MOCLDY    87  76  69 S5        29.81R HX  97
CHESTERFIELD*  FAIR      86  76  71 S6        29.82R HX  96
PETERSBURG*    PTCLDY    82  74  79 CALM      29.83R
HANOVER        PTCLDY    79  70  74 VRB5      29.83R
TAPPAHANNOCK*  CLEAR     77  73  87 E3        29.83F
QUINTON*       FAIR      84  76  76 CALM      29.81R
CHARLOTTSVILLE MOCLDY    79  74  84 N9G18     29.86R THUNDER
GORDONSVILLE*  CLOUDY    76  75  99 CALM      29.81F
ORANGE*        LGT RAIN  73  72  94 CALM      29.80F
LOUISA*        RAIN      75  70  83 CALM      29.83S
BUMPASS*       FAIR      75  73  93 CALM      29.82S
FARMVILLE*     CLEAR     85  71  61 SW6       29.82R
CREWE*         FAIR      86  68  54 CALM      29.84R
FORT PICKETT*  FAIR     N/A N/A N/A SW7       29.84R
CHASE CITY*    FAIR      86  74  66 CALM      29.86R
CLARKSVILLE*   FAIR      82  73  74 SW5       29.86R
SOUTH HILL*    CLEAR     85  76  74 S8        29.91R HX  95
LAWRENCEVILLE* FAIR      86  74  67 SW5       29.85R HX  95
EMPORIA*       CLEAR     86  73  66 S5        29.85S
$$

VAZ088>098-230300-
SOUTHEAST VIRGINIA

CITY           SKY/WX    TMP DP  RH WIND       PRES   REMARKS
NORFOLK        NOT AVBL
VIRGINIA BEACH MOCLDY    83  68  60 S6        29.84R
NORFOLK NAVAL  MOCLDY    85  73  67 S6        29.85R
WEST POINT*    MOCLDY    77  73  90 CALM      29.84R
SALUDA*        FAIR      74  74 100 E3        29.84R
NEWPORT NEWS   CLOUDY    83  75  77 S6        29.83R
LANGLEY AFB    NOT AVBL
FORT EUSTIS    NOT AVBL
WILLIAMSBURG*  CLOUDY    86  75  70 S6        29.83R HX  95
HR EXEC AP*    FAIR      77  73  88 S7        29.83R
FRANKLIN*      CLOUDY   N/A N/A N/A S7        29.85S
US460-WAKEFLD  PTCLDY    83  75  77 VRB6      29.83R
$$

VAZ020-022-025-037-045-230300-
WEST CENTRAL AND SOUTHWEST VIRGINIA

CITY           SKY/WX    TMP DP  RH WIND       PRES   REMARKS
STAUNTON*      CLOUDY    76  66  69 NW3       29.88F
WAYNESBORO*    MOCLDY    76  75  96 S8        29.91R
HOT SPRINGS VA CLOUDY    72  55  56 W14G20    30.05S
LYNCHBURG      LGT RAIN  84  68  58 SW8       29.87S
DANVILLE       PTCLDY    78  72  81 W5        29.88R
SOUTH BOSTON*  FAIR      84  70  62 SW5       29.86R
MARTINSVILLE   CLEAR     73  69  89 CALM      29.93R
ROANOKE        PTCLDY    87  72  60 SW6       29.90R
BLACKSBURG     MOCLDY    83  69  63 W3        29.99R
DUBLIN*        PTCLDY    82  63  52 SW7       29.98S
MARION*        CLEAR     79  68  70 CALM      30.04R
HILLSVILLE*    CLEAR     77  66  68 CALM      30.02R
RICHLANDS*     FAIR      81  67  63 SW6       30.03S
WISE*          CLEAR     79  68  69 SW6       30.05R
ABINGDON*      CLEAR     84  70  63 NW3       30.00R
$$

MDZ021>025-VAZ099-100-230300-
SOUTHERN MARYLAND AND THE DELMARVA PENINSULA

CITY           SKY/WX    TMP DP  RH WIND       PRES   REMARKS
PATUXENT RIVER CLOUDY    77  74  90 SE13G18   29.81R THUNDER
BAY BRIDGE APT MOCLDY    77  73  88 CALM      29.80R
LEONARDTOWN    CLOUDY    72  70  94 SE8       29.83R
DOVER          NOT AVBL
GEORGETOWN     CLOUDY    77  73  87 SW15      29.84R
EASTON         CLEAR     77  73  88 S7        29.85R
CAMBRIDGE      MOCLDY    75  73  94 S6        29.82R
SALISBURY      PTCLDY    73  73 100 SE8       29.84R
OCEAN CITY     CLOUDY    75  73  93 SW9G21    29.86S
WALLOPS ISLAND TSTM      74  73  97 SW7       29.87S
ACCOMACK*      CLOUDY    74  72  95 SE3       29.87F
$$

NCZ012>017-030>032-230300-
NORTH CENTRAL AND EASTERN NORTH CAROLINA

CITY           SKY/WX    TMP DP  RH WIND       PRES   REMARKS
ROANOKE RAPIDS FAIR      86  73  66 S7        29.86R
RALEIGH        PTCLDY    87  72  60 SW15      29.89R
ELIZABETH CITY CLOUDY    85  78  80 S14       29.87R HX  96
AHOSKIE*         N/A     84  75  74 S5        29.87R
EDENTON*       CLOUDY    86  76  72 S15       29.88R HX  96
CURRITUCK*     CLOUDY    86  78  76 S6        29.87R HX  97
KILL DEVIL HLS CLOUDY    83  73  70 SW10G17   29.87S
MANTEO         CLOUDY    83  74  74 SW17      29.89S
CAPE HATTERAS  NOT AVBL
TARBORO*       NOT AVBL
GOLDSBORO      NOT AVBL
WASHINGTON     CLEAR     83  74  74 S8        29.90R
GREENVILLE     CLEAR     86  75  70 SW12      29.91R HX  95
NEW BERN       CLEAR     80  76  87 S12       29.93S
WILMINGTON     CLEAR     81  77  88 SW13      29.95R
$$

VAZ048-230300-
ELSEWHERE

CITY           SKY/WX    TMP DP  RH WIND       PRES   REMARKS
HARRISBURG PA  CLOUDY    78  72  81 W8        29.77S
BALTIMORE      CLOUDY    74  73  97 W6        29.79S
ANNAPOLIS      CLOUDY    73  73 100 NW8       29.80R
ANDREWS AFB    NOT AVBL
PHILADELPHIA   CLOUDY    82  70  66 SW13      29.76F
HENDERSON NC   CLEAR     84  70  63 SW9       29.87S
GREENSBORO     CLOUDY    81  74  79 SW3       29.91R
ROCKY MOUNT    CLEAR     86  75  69 S10       29.88R HX  95
$$

VAZ100-230300-
MARINE

STATION/POSITION TIME  TEMP    WIND        PRES    WAVE   SWELL
                       AIR SEA DIR/SP/G            HT/PER HT/PER
                 (UTC) (F)     (DEG/KT/KT) (MB)    (FT/S) (FT/S)
BRANDYWINE LGT   0142   78     230/ 13/ 14 1009.4S
CAPE MAY NJ      0148   76 74  240/  7/  8 1008.8R
LEWES DE         0148   76 77  180/  5/  7 1008.5F
15NM E FENWICK I 0150   78 77  230/ 17/ 21 1010.5R   2/ 6   2/10
OCEAN-CITY-INLET 0142   75 73  240/ 15/ 20 1011.3R
WACHAPREAGUE VA  0148   74 84  360/  3/  8 1012.2R
THOMAS POINT MD  0200   76 84  240/  2/  3   N/A
GOOSES REEF MD   0150   79     170/ 10/ 14 1009.5F
COVE POINT MD    0148   78     180/ 20/ 21 1009.6F
SOLOMONS ISLAND  0148   77 84  160/ 14/ 17   N/A
BISHOPS HEAD MD  0148   79 87  130/ 11/ 12 1009.9F
PINEY POINT MD   0142          150/ 15/ 16   N/A
POTOMAC MD       0150   79     150/ 14/ 16 1008.9R
CAMBRIDGE MD     0142   75 88              1010.6R
LEWISETTA VA     0148   75 86  170/  5/  7 1009.6R
RAPPAHANNOCK LGT 0142           30/ 10/ 13 1011.5R
STINGRAY PT      0150   78      80/ 12/ 16 1009.4F
YORK RVR RNG VA  0148   82      70/ 13/ 18 1010.9R
YORKTOWN VA      0148   84 83   30/  7/  7 1009.9R
JAMESTOWN VA     0150          200/ 10/ 14   N/A
DOMINION TERM VA 0148   82     190/ 10/ 13 1009.9R
KIPTOPEKE VA     0142      80  180/  3/  6   N/A
CHES BAY BRIDGE  0148   85 71  200/  9/ 11 1010.3R
CAPE HENRY VA    0148   84     180/  8/ 10   N/A
WILLOUBY STN VA  0148   84     190/ 13/ 15 1010.1R
S CRANEY ISL VA  0148   82     200/ 11/ 14 1010.1R
CAPE HENRY BUOY  0130      74                N/A     2/10
1ST LANDING BUOY 0150   82                 1010.2R
64NM E OF VA BCH 0150   82 81  210/ 19/ 23 1011.3F   5/ 6   2/ 9
DUCK PIER NC     0148   84 61  210/ 18/ 22 1010.8R
44100 DUCK FRF   0105      74                N/A     3/ 5
44056 DUCK FRF   0130      63                N/A     2/10
OREGON INLET NC  0142   83 86  200/ 23/ 25 1012.0F
HATTERAS NC      0142   78 78  220/ 11/ 15 1013.5R
DIAMOND SHLS NC  0150   84 81  230/ 23/ 27 1013.3S   5/ 5   2/ 8
CAPE LOOKOUT NC  0200   81     220/ 12/ 17 1014.0R
$$




USA.gov is the U.S. government's official web portal to all federal, state and local government web resources and services.